Forside
METAR-TAF:

METAR-TAF

Lufthavne :

Tomahawk Regional Airport

Tomahawk, Wisconsin, USA

Breddekreds: 45-28-08N, længdekreds: 089-48-20W, højde: 453 m

Aktuelle vejr

Denne rapport blev lavet for 9 minutter siden, kl. 14:55 UTC
Vind 9 kt fra vest
Temperatur 12°C
Fugtighed 47%
Tryk 1007 hPa
Sigt: 16.1 km
skyfri

METAR: KTKV 081455Z AUTO 26009KT 10SM CLR 12/01 A2973 RMK AO2 T01150012 PWINO

Tid: 10:04 (15:04 UTC)


TAF: fraværende

Vejrobservationer og prognoser fra mere end 4000 lufthavne (METAR og TAF).

De gule og røde prikker repræsenterer de meteorologiske stationer.

Flyt musen over at se navnet på stationen.

Så klik over at se vejr observationer og prognoser.

At skifte det kort: Klik på de grønne knapper med et sort kors for at zoome ind; på den grønne knap med en bindestreg for at zoome ud; eller på de grønne pile for tilstødende kort.


METAR-TAF: